Location: Little Chesterford
(52.0500°N, 0.1833°E)
Time: 09:45:22
(UTC+00:00)

CZ-4C R/B - Pass Details

Date: 26 September 2023
Orbit: 542 x 1454 km, 63.4° (Epoch: 09 December)

Event Time Altitude Azimuth Distance (km) Brightness Sun altitude
Rises 21:02:58 0° 302° (WNW) 3,411 6.6 -28.5°
Reaches altitude 10° 21:05:28 10° 312° (NW) 2,607 5.7 -28.8°
Maximum altitude 21:11:07 35° 17° (NNE) 1,655 3.8 -29.4°
Enters shadow 21:13:45 27° 56° (NE) 2,013 4.0 -29.7°
